"Sample Date","Sample Time","Sample Value","Units","Flow Rate","Sample Interval","Number Channels","Micron Size 0","Counts/Channel 0","Micron Size 1","Counts/Channel 1","Micron Size 2","Counts/Channel 2","Micron Size 3","Counts/Channel 3","Micron Size 4","Counts/Channel 4","Micron Size 5","Counts/Channel 5","Micron Size 6","Counts/Channel 6","Micron Size 7","Counts/Channel 7","Micron Size 8","Counts/Channel 8","Micron Size 9","Counts/Channel 9","Micron Size 10","Counts/Channel 10","Micron Size 11","Counts/Channel 11","Micron Size 12","Counts/Channel 12","Micron Size 13","Counts/Channel 13","Micron Size 14","Counts/Channel 14","Micron Size 15","Counts/Channel 15","Micron Size 16","Counts/Channel 16","Micron Size 17","Counts/Channel 17","Micron Size 18","Counts/Channel 18","Micron Size 19","Counts/Channel 19","Micron Size 20","Counts/Channel 20","Micron Size 21","Counts/Channel 21","Micron Size 22","Counts/Channel 22","Micron Size 23","Counts/Channel 23","Micron Size 24","Counts/Channel 24","Micron Size 25","Counts/Channel 25","Micron Size 26","Counts/Channel 26","Micron Size 27","Counts/Channel 27","Micron Size 28","Counts/Channel 28","Micron Size 29","Counts/Channel 29","Micron Size 30","Counts/Channel 30","Micron Size 31","Counts/Channel 31"
"04/02/08","09:00:01",37591.000,"cc",28320.240,6.00,6,0.100,34420.000,0.200,1967.000,0.300,488.000,0.500,535.000,1.000,181.000,5.000,0
"04/02/08","09:00:07",36151.000,"cc",28278.197,6.00,6,0.100,32500.000,0.200,2072.000,0.300,677.000,0.500,666.000,1.000,236.000,5.000,0
"04/02/08","09:00:13",45580.000,"cc",28329.238,6.00,6,0.100,40589.000,0.200,2953.000,0.300,857.000,0.500,868.000,1.000,313.000,5.000,0
"04/02/08","09:00:19",37690.000,"cc",28347.029,6.00,6,0.100,33291.000,0.200,2373.000,0.300,836.000,0.500,865.000,1.000,325.000,5.000,0
"04/02/08","09:00:25",33554.000,"cc",28315.547,6.00,6,0.100,30547.000,0.200,1780.000,0.300,501.000,0.500,533.000,1.000,193.000,5.000,0
"04/02/08","09:00:31",34053.000,"cc",28290.889,6.00,6,0.100,30777.000,0.200,1801.000,0.300,615.000,0.500,614.000,1.000,246.000,5.000,0
"04/02/08","09:00:37",28539.000,"cc",28313.922,6.00,6,0.100,24700.000,0.200,1734.000,0.300,879.000,0.500,914.000,1.000,312.000,5.000,0
"04/02/08","09:00:43",30904.000,"cc",28351.348,6.00,6,0.100,27061.000,0.200,1822.000,0.300,837.000,0.500,860.000,1.000,324.000,5.000,0
"04/02/08","09:00:49",49025.000,"cc",28335.287,6.00,6,0.100,44268.000,0.200,3032.000,0.300,739.000,0.500,694.000,1.000,292.000,5.000,0
"04/02/08","09:00:55",47643.000,"cc",28316.861,6.00,6,0.100,42979.000,0.200,2933.000,0.300,758.000,0.500,717.000,1.000,256.000,5.000,0
"04/02/08","09:01:01",41073.000,"cc",28280.176,6.00,6,0.100,37147.000,0.200,2410.000,0.300,637.000,0.500,643.000,1.000,236.000,5.000,0
"04/02/08","09:01:07",61857.000,"cc",28331.188,6.00,6,0.100,56489.000,0.200,3965.000,0.300,647.000,0.500,574.000,1.000,182.000,5.000,0
"04/02/08","09:01:13",62602.000,"cc",28316.764,6.00,6,0.100,57270.000,0.200,3965.000,0.300,618.000,0.500,562.000,1.000,187.000,5.000,0
"04/02/08","09:01:19",30609.000,"cc",28272.357,6.00,6,0.100,27946.000,0.200,1502.000,0.300,520.000,0.500,457.000,1.000,184.000,5.000,0
"04/02/08","09:01:25",30505.000,"cc",28338.125,6.00,6,0.100,27871.000,0.200,1510.000,0.300,460.000,0.500,485.000,1.000,179.000,5.000,0
"04/02/08","09:01:31",33578.000,"cc",28290.408,6.00,6,0.100,30741.000,0.200,1673.000,0.300,492.000,0.500,483.000,1.000,189.000,5.000,0
"04/02/08","09:01:37",33354.000,"cc",28326.371,6.00,6,0.100,30293.000,0.200,1818.000,0.300,528.000,0.500,541.000,1.000,174.000,5.000,0
"04/02/08","09:01:43",61768.000,"cc",28289.754,6.00,6,0.100,56565.000,0.200,3836.000,0.300,601.000,0.500,560.000,1.000,206.000,5.000,0
"04/02/08","09:01:49",49434.000,"cc",28340.951,6.00,6,0.100,45327.000,0.200,2842.000,0.300,548.000,0.500,512.000,1.000,205.000,5.000,0
"04/02/08","09:01:55",33281.000,"cc",28325.934,6.00,6,0.100,30289.000,0.200,1696.000,0.300,528.000,0.500,572.000,1.000,196.000,5.000,0
"04/02/08","09:02:01",33442.000,"cc",28298.541,6.00,6,0.100,29991.000,0.200,1831.000,0.300,629.000,0.500,727.000,1.000,264.000,5.000,0
"04/02/08","09:02:07",37949.000,"cc",28385.623,6.00,6,0.100,34630.000,0.200,2077.000,0.300,544.000,0.500,512.000,1.000,186.000,5.000,0
"04/02/08","09:02:13",68374.000,"cc",28273.277,6.00,6,0.100,62889.000,0.200,4204.000,0.300,594.000,0.500,507.000,1.000,180.000,5.000,0
"04/02/08","09:02:19",36798.000,"cc",28343.096,6.00,6,0.100,33729.000,0.200,1935.000,0.300,449.000,0.500,501.000,1.000,184.000,5.000,0
"04/02/08","09:02:25",46207.000,"cc",28309.500,6.00,6,0.100,42423.000,0.200,2589.000,0.300,496.000,0.500,513.000,1.000,186.000,5.000,0
"04/02/08","09:02:31",46596.000,"cc",28274.469,6.00,6,0.100,42646.000,0.200,2678.000,0.300,521.000,0.500,559.000,1.000,192.000,5.000,0
"04/02/08","09:02:37",54951.000,"cc",28301.629,6.00,6,0.100,50559.000,0.200,3150.000,0.300,508.000,0.500,526.000,1.000,208.000,5.000,0
"04/02/08","09:02:43",39933.000,"cc",28309.965,6.00,6,0.100,36533.000,0.200,2187.000,0.300,501.000,0.500,523.000,1.000,189.000,5.000,0
"04/02/08","09:02:49",40202.000,"cc",28445.438,6.00,6,0.100,36770.000,0.200,2208.000,0.300,520.000,0.500,509.000,1.000,195.000,5.000,0
"04/02/08","09:02:55",57854.000,"cc",28256.326,6.00,6,0.100,52759.000,0.200,3648.000,0.300,653.000,0.500,578.000,1.000,216.000,5.000,0
"04/02/08","09:03:01",36816.000,"cc",28251.078,6.00,6,0.100,33284.000,0.200,2052.000,0.300,609.000,0.500,621.000,1.000,250.000,5.000,0
"04/02/08","09:03:07",52825.000,"cc",28348.231,6.00,6,0.100,48015.000,0.200,3215.000,0.300,678.000,0.500,656.000,1.000,261.000,5.000,0
"04/02/08","09:03:13",122483.000,"cc",28347.680,6.00,6,0.100,111856.000,0.200,8682.000,0.300,938.000,0.500,725.000,1.000,282.000,5.000,0
"04/02/08","09:03:19",106437.000,"cc",28365.836,6.00,6,0.100,96717.000,0.200,7481.000,0.300,1051.000,0.500,848.000,1.000,340.000,5.000,0
"04/02/08","09:03:25",75403.000,"cc",28288.981,6.00,6,0.100,68171.000,0.200,5037.000,0.300,878.000,0.500,951.000,1.000,366.000,5.000,0
"04/02/08","09:03:31",113800.000,"cc",28340.963,6.00,6,0.100,103795.000,0.200,8014.000,0.300,928.000,0.500,740.000,1.000,323.000,5.000,0
"04/02/08","09:03:37",100602.000,"cc",28315.777,6.00,6,0.100,92010.000,0.200,6806.000,0.300,830.000,0.500,691.000,1.000,265.000,5.000,0
"04/02/08","09:03:43",81317.000,"cc",28261.840,6.00,6,0.100,73917.000,0.200,5507.000,0.300,810.000,0.500,795.000,1.000,288.000,5.000,0
"04/02/08","09:03:49",88026.000,"cc",28338.395,6.00,6,0.100,80341.000,0.200,5910.000,0.300,803.000,0.500,703.000,1.000,269.000,5.000,0
"04/02/08","09:03:55",69595.000,"cc",28323.180,6.00,6,0.100,63471.000,0.200,4492.000,0.300,675.000,0.500,694.000,1.000,263.000,5.000,0
"04/02/08","09:04:01",72245.000,"cc",28325.059,6.00,6,0.100,66140.000,0.200,4579.000,0.300,661.000,0.500,649.000,1.000,216.000,5.000,0
"04/02/08","09:04:07",179012.000,"cc",28317.049,6.00,6,0.100,163373.000,0.200,13671.000,0.300,1029.000,0.500,693.000,1.000,246.000,5.000,0
"04/02/08","09:04:13",180610.000,"cc",28318.875,6.00,6,0.100,164693.000,0.200,13962.000,0.300,1002.000,0.500,674.000,1.000,279.000,5.000,0
"04/02/08","09:04:19",136999.000,"cc",28320.330,6.00,6,0.100,125275.000,0.200,9954.000,0.300,929.000,0.500,614.000,1.000,227.000,5.000,0
"04/02/08","09:04:25",129034.000,"cc",28385.561,6.00,6,0.100,117648.000,0.200,9670.000,0.300,831.000,0.500,622.000,1.000,263.000,5.000,0
"04/02/08","09:04:31",140560.000,"cc",28253.805,6.00,6,0.100,128039.000,0.200,10709.000,0.300,938.000,0.500,652.000,1.000,222.000,5.000,0
"04/02/08","09:04:37",168121.000,"cc",28294.164,6.00,6,0.100,153041.000,0.200,12943.000,0.300,1108.000,0.500,749.000,1.000,280.000,5.000,0
"04/02/08","09:04:43",158982.000,"cc",28276.299,6.00,6,0.100,144655.000,0.200,12235.000,0.300,1071.000,0.500,757.000,1.000,264.000,5.000,0
"04/02/08","09:04:49",153020.000,"cc",28273.154,6.00,6,0.100,139295.000,0.200,11573.000,0.300,1115.000,0.500,746.000,1.000,291.000,5.000,0
"04/02/08","09:04:55",104475.000,"cc",28400.889,6.00,6,0.100,95088.000,0.200,7499.000,0.300,921.000,0.500,713.000,1.000,254.000,5.000,0
"04/02/08","09:05:01",90639.000,"cc",28356.254,6.00,6,0.100,82263.000,0.200,6565.000,0.300,844.000,0.500,699.000,1.000,268.000,5.000,0
"04/02/08","09:05:07",121429.000,"cc",28327.949,6.00,6,0.100,110000.000,0.200,9154.000,0.300,1091.000,0.500,846.000,1.000,338.000,5.000,0
"04/02/08","09:05:13",105976.000,"cc",28351.576,6.00,6,0.100,95913.000,0.200,7847.000,0.300,1014.000,0.500,895.000,1.000,307.000,5.000,0
"04/02/08","09:05:19",83277.000,"cc",28298.531,6.00,6,0.100,75268.000,0.200,5885.000,0.300,978.000,0.500,840.000,1.000,306.000,5.000,0
"04/02/08","09:05:25",61566.000,"cc",28270.615,6.00,6,0.100,55143.000,0.200,4177.000,0.300,929.000,0.500,964.000,1.000,353.000,5.000,0
"04/02/08","09:05:31",56204.000,"cc",28305.010,6.00,6,0.100,50424.000,0.200,3750.000,0.300,880.000,0.500,832.000,1.000,318.000,5.000,0
"04/02/08","09:05:37",66534.000,"cc",28297.318,6.00,6,0.100,60020.000,0.200,4346.000,0.300,925.000,0.500,882.000,1.000,361.000,5.000,0
"04/02/08","09:05:43",53874.000,"cc",28385.904,6.00,6,0.100,48702.000,0.200,3424.000,0.300,742.000,0.500,720.000,1.000,286.000,5.000,0
"04/02/08","09:05:49",53244.000,"cc",28306.637,6.00,6,0.100,47182.000,0.200,3601.000,0.300,1058.000,0.500,1031.000,1.000,372.000,5.000,0
"04/02/08","09:05:55",52364.000,"cc",28277.338,6.00,6,0.100,46464.000,0.200,3554.000,0.300,992.000,0.500,1012.000,1.000,342.000,5.000,0
"04/02/08","09:06:01",41060.000,"cc",28429.762,6.00,6,0.100,36450.000,0.200,2559.000,0.300,872.000,0.500,870.000,1.000,309.000,5.000,0
"04/02/08","09:06:07",35740.000,"cc",28216.080,6.00,6,0.100,31381.000,0.200,2198.000,0.300,923.000,0.500,878.000,1.000,360.000,5.000,0
"04/02/08","09:06:13",74854.000,"cc",28369.723,6.00,6,0.100,66321.000,0.200,5885.000,0.300,1184.000,0.500,1083.000,1.000,381.000,5.000,0
"04/02/08","09:06:19",175527.000,"cc",28274.051,6.00,6,0.100,156902.000,0.200,15228.000,0.300,1743.000,0.500,1195.000,1.000,459.000,5.000,0
"04/02/08","09:06:25",91069.000,"cc",28328.090,6.00,6,0.100,81536.000,0.200,6988.000,0.300,1178.000,0.500,965.000,1.000,402.000,5.000,0
"04/02/08","09:06:31",122533.000,"cc",28292.467,6.00,6,0.100,109774.000,0.200,9984.000,0.300,1316.000,0.500,1050.000,1.000,409.000,5.000,0
"04/02/08","09:06:37",73478.000,"cc",28294.928,6.00,6,0.100,65278.000,0.200,5484.000,0.300,1199.000,0.500,1105.000,1.000,412.000,5.000,0
"04/02/08","09:06:43",69804.000,"cc",28334.629,6.00,6,0.100,62164.000,0.200,5130.000,0.300,1118.000,0.500,1019.000,1.000,373.000,5.000,0
"04/02/08","09:06:49",53312.000,"cc",28373.080,6.00,6,0.100,47165.000,0.200,3827.000,0.300,940.000,0.500,963.000,1.000,417.000,5.000,0
"04/02/08","09:06:55",60638.000,"cc",28233.885,6.00,6,0.100,52850.000,0.200,4728.000,0.300,1340.000,0.500,1229.000,1.000,491.000,5.000,0
"04/02/08","09:07:01",78571.000,"cc",28369.713,6.00,6,0.100,68633.000,0.200,6171.000,0.300,1654.000,0.500,1526.000,1.000,587.000,5.000,0
"04/02/08","09:07:07",156403.000,"cc",28346.297,6.00,6,0.100,140089.000,0.200,12530.000,0.300,1691.000,0.500,1498.000,1.000,595.000,5.000,0
"04/02/08","09:07:13",149342.000,"cc",28340.209,6.00,6,0.100,131700.000,0.200,12469.000,0.300,2364.000,0.500,2021.000,1.000,788.000,5.000,0
"04/02/08","09:07:19",218523.000,"cc",28293.207,6.00,6,0.100,195937.000,0.200,18206.000,0.300,2096.000,0.500,1690.000,1.000,594.000,5.000,0
"04/02/08","09:07:25",148548.000,"cc",28294.684,6.00,6,0.100,132160.000,0.200,11864.000,0.300,2034.000,0.500,1764.000,1.000,726.000,5.000,0
"04/02/08","09:07:31",73420.000,"cc",28312.856,6.00,6,0.100,61468.000,0.200,6153.000,0.300,2438.000,0.500,2393.000,1.000,968.000,5.000,0
"04/02/08","09:07:37",72683.000,"cc",28271.029,6.00,6,0.100,61793.000,0.200,5879.000,0.300,2112.000,0.500,2064.000,1.000,835.000,5.000,0
"04/02/08","09:07:43",77787.000,"cc",28322.242,6.00,6,0.100,66251.000,0.200,6390.000,0.300,2140.000,0.500,2128.000,1.000,878.000,5.000,0
"04/02/08","09:07:49",63807.000,"cc",28297.320,6.00,6,0.100,53409.000,0.200,5457.000,0.300,2112.000,0.500,2046.000,1.000,783.000,5.000,0
"04/02/08","09:07:55",62812.000,"cc",28326.414,6.00,6,0.100,51722.000,0.200,5475.000,0.300,2389.000,0.500,2336.000,1.000,890.000,5.000,0
"04/02/08","09:08:01",52950.000,"cc",28297.818,6.00,6,0.100,46229.000,0.200,3703.000,0.300,1254.000,0.500,1283.000,1.000,481.000,5.000,0
"04/02/08","09:08:07",61242.000,"cc",28355.932,6.00,6,0.100,53763.000,0.200,4456.000,0.300,1313.000,0.500,1246.000,1.000,464.000,5.000,0
"04/02/08","09:08:13",53874.000,"cc",28339.910,6.00,6,0.100,47076.000,0.200,3837.000,0.300,1209.000,0.500,1274.000,1.000,478.000,5.000,0
"04/02/08","09:08:19",114735.000,"cc",28305.721,6.00,6,0.100,102710.000,0.200,9103.000,0.300,1339.000,0.500,1100.000,1.000,483.000,5.000,0
"04/02/08","09:08:25",65885.000,"cc",28329.863,6.00,6,0.100,58420.000,0.200,5091.000,0.300,1033.000,0.500,960.000,1.000,381.000,5.000,0
"04/02/08","09:08:31",41583.000,"cc",28327.002,6.00,6,0.100,36881.000,0.200,2786.000,0.300,811.000,0.500,791.000,1.000,314.000,5.000,0
"04/02/08","09:08:37",34356.000,"cc",28313.965,6.00,6,0.100,30977.000,0.200,1916.000,0.300,605.000,0.500,632.000,1.000,226.000,5.000,0
"04/02/08","09:08:43",38118.000,"cc",28297.234,6.00,6,0.100,34374.000,0.200,2256.000,0.300,620.000,0.500,643.000,1.000,225.000,5.000,0
"04/02/08","09:08:49",87082.000,"cc",28334.315,6.00,6,0.100,78773.000,0.200,6179.000,0.300,946.000,0.500,866.000,1.000,318.000,5.000,0
"04/02/08","09:08:55",63773.000,"cc",28353.481,6.00,6,0.100,57584.000,0.200,4262.000,0.300,875.000,0.500,781.000,1.000,271.000,5.000,0
"04/02/08","09:09:01",60067.000,"cc",28287.035,6.00,6,0.100,54034.000,0.200,4048.000,0.300,865.000,0.500,831.000,1.000,289.000,5.000,0
"04/02/08","09:09:07",64818.000,"cc",28277.820,6.00,6,0.100,58589.000,0.200,4326.000,0.300,863.000,0.500,785.000,1.000,255.000,5.000,0
"04/02/08","09:09:13",124039.000,"cc",28321.022,6.00,6,0.100,112581.000,0.200,9080.000,0.300,1106.000,0.500,917.000,1.000,355.000,5.000,0
"04/02/08","09:09:19",128812.000,"cc",28358.893,6.00,6,0.100,116486.000,0.200,9900.000,0.300,1203.000,0.500,903.000,1.000,320.000,5.000,0
"04/02/08","09:09:25",115307.000,"cc",28327.910,6.00,6,0.100,104668.000,0.200,8481.000,0.300,1023.000,0.500,812.000,1.000,323.000,5.000,0
"04/02/08","09:09:31",108737.000,"cc",28334.160,6.00,6,0.100,98541.000,0.200,8053.000,0.300,1013.000,0.500,824.000,1.000,306.000,5.000,0
"04/02/08","09:09:37",107360.000,"cc",28330.623,6.00,6,0.100,97004.000,0.200,8011.000,0.300,1118.000,0.500,911.000,1.000,316.000,5.000,0
"04/02/08","09:09:43",57765.000,"cc",28287.430,6.00,6,0.100,51434.000,0.200,3972.000,0.300,1008.000,0.500,996.000,1.000,355.000,5.000,0
"04/02/08","09:09:49",43967.000,"cc",28270.523,6.00,6,0.100,38828.000,0.200,2886.000,0.300,953.000,0.500,941.000,1.000,359.000,5.000,0
"04/02/08","09:09:55",30251.000,"cc",28365.531,6.00,6,0.100,26684.000,0.200,1735.000,0.300,734.000,0.500,806.000,1.000,292.000,5.000,0
"04/02/08","09:10:01",41094.000,"cc",28308.600,6.00,6,0.100,36383.000,0.200,2630.000,0.300,876.000,0.500,894.000,1.000,311.000,5.000,0
"04/02/08","09:10:07",32261.000,"cc",28358.451,6.00,6,0.100,28253.000,0.200,1924.000,0.300,882.000,0.500,895.000,1.000,307.000,5.000,0
"04/02/08","09:10:13",28282.000,"cc",28298.219,6.00,6,0.100,24539.000,0.200,1736.000,0.300,832.000,0.500,879.000,1.000,296.000,5.000,0
"04/02/08","09:10:19",36307.000,"cc",28278.990,6.00,6,0.100,32219.000,0.200,2216.000,0.300,781.000,0.500,779.000,1.000,312.000,5.000,0
"04/02/08","09:10:25",35975.000,"cc",28304.566,6.00,6,0.100,32206.000,0.200,2167.000,0.300,635.000,0.500,707.000,1.000,260.000,5.000,0
"04/02/08","09:10:31",45047.000,"cc",28320.135,6.00,6,0.100,40659.000,0.200,2673.000,0.300,769.000,0.500,677.000,1.000,269.000,5.000,0
"04/02/08","09:10:37",45681.000,"cc",28440.029,6.00,6,0.100,41411.000,0.200,2702.000,0.300,667.000,0.500,665.000,1.000,236.000,5.000,0
"04/02/08","09:10:43",41092.000,"cc",28262.490,6.00,6,0.100,37175.000,0.200,2480.000,0.300,607.000,0.500,622.000,1.000,208.000,5.000,0
"04/02/08","09:10:49",37996.000,"cc",28322.145,6.00,6,0.100,34229.000,0.200,2280.000,0.300,637.000,0.500,641.000,1.000,209.000,5.000,0
"04/02/08","09:10:55",49286.000,"cc",28321.910,6.00,6,0.100,44806.000,0.200,3085.000,0.300,586.000,0.500,588.000,1.000,221.000,5.000,0
"04/02/08","09:11:01",116393.000,"cc",28311.051,6.00,6,0.100,106058.000,0.200,8483.000,0.300,907.000,0.500,696.000,1.000,249.000,5.000,0
"04/02/08","09:11:07",93607.000,"cc",28256.910,6.00,6,0.100,85286.000,0.200,6509.000,0.300,854.000,0.500,700.000,1.000,258.000,5.000,0
"04/02/08","09:11:13",107865.000,"cc",28360.190,6.00,6,0.100,98313.000,0.200,7630.000,0.300,930.000,0.500,741.000,1.000,251.000,5.000,0
"04/02/08","09:11:19",120944.000,"cc",28294.754,6.00,6,0.100,110415.000,0.200,8710.000,0.300,907.000,0.500,713.000,1.000,199.000,5.000,0
"04/02/08","09:11:25",182367.000,"cc",28282.135,6.00,6,0.100,165760.000,0.200,14377.000,0.300,1176.000,0.500,760.000,1.000,294.000,5.000,0
"04/02/08","09:11:31",118226.000,"cc",28368.180,6.00,6,0.100,107821.000,0.200,8495.000,0.300,935.000,0.500,702.000,1.000,273.000,5.000,0
"04/02/08","09:11:37",143972.000,"cc",28345.889,6.00,6,0.100,131441.000,0.200,10580.000,0.300,963.000,0.500,728.000,1.000,260.000,5.000,0
"04/02/08","09:11:43",137507.000,"cc",28340.465,6.00,6,0.100,125250.000,0.200,10108.000,0.300,1061.000,0.500,780.000,1.000,308.000,5.000,0
"04/02/08","09:11:49",93145.000,"cc",28328.826,6.00,6,0.100,84491.000,0.200,6439.000,0.300,1005.000,0.500,884.000,1.000,326.000,5.000,0
"04/02/08","09:11:55",81950.000,"cc",28287.420,6.00,6,0.100,74358.000,0.200,5648.000,0.300,825.000,0.500,831.000,1.000,288.000,5.000,0
"04/02/08","09:12:01",129083.000,"cc",28296.328,6.00,6,0.100,117361.000,0.200,9538.000,0.300,1067.000,0.500,817.000,1.000,300.000,5.000,0
"04/02/08","09:12:07",95374.000,"cc",28310.502,6.00,6,0.100,86675.000,0.200,6842.000,0.300,847.000,0.500,749.000,1.000,261.000,5.000,0
"04/02/08","09:12:13",92075.000,"cc",28310.320,6.00,6,0.100,83783.000,0.200,6330.000,0.300,881.000,0.500,805.000,1.000,276.000,5.000,0
"04/02/08","09:12:19",95818.000,"cc",28355.650,6.00,6,0.100,87428.000,0.200,6545.000,0.300,831.000,0.500,742.000,1.000,272.000,5.000,0
"04/02/08","09:12:25",102908.000,"cc",28352.065,6.00,6,0.100,93570.000,0.200,7335.000,0.300,971.000,0.500,746.000,1.000,286.000,5.000,0
"04/02/08","09:12:31",161005.000,"cc",28291.508,6.00,6,0.100,145552.000,0.200,12976.000,0.300,1234.000,0.500,919.000,1.000,324.000,5.000,0
"04/02/08","09:12:37",235872.000,"cc",28281.022,6.00,6,0.100,212385.000,0.200,20784.000,0.300,1491.000,0.500,910.000,1.000,302.000,5.000,0
"04/02/08","09:12:43",213970.000,"cc",28278.121,6.00,6,0.100,192536.000,0.200,18573.000,0.300,1507.000,0.500,999.000,1.000,355.000,5.000,0
"04/02/08","09:12:49",136615.000,"cc",28337.826,6.00,6,0.100,123339.000,0.200,10567.000,0.300,1317.000,0.500,1021.000,1.000,371.000,5.000,0
"04/02/08","09:12:55",149622.000,"cc",28315.244,6.00,6,0.100,135392.000,0.200,11714.000,0.300,1251.000,0.500,920.000,1.000,345.000,5.000,0
"04/02/08","09:13:01",165109.000,"cc",28343.885,6.00,6,0.100,149238.000,0.200,13347.000,0.300,1272.000,0.500,907.000,1.000,345.000,5.000,0
"04/02/08","09:13:07",165708.000,"cc",28318.344,6.00,6,0.100,149226.000,0.200,13604.000,0.300,1463.000,0.500,1021.000,1.000,394.000,5.000,0
"04/02/08","09:13:13",108229.000,"cc",28305.047,6.00,6,0.100,97407.000,0.200,8462.000,0.300,1161.000,0.500,834.000,1.000,365.000,5.000,0
"04/02/08","09:13:19",109233.000,"cc",28309.803,6.00,6,0.100,98148.000,0.200,8404.000,0.300,1278.000,0.500,1035.000,1.000,368.000,5.000,0
"04/02/08","09:13:25",107982.000,"cc",28340.043,6.00,6,0.100,96944.000,0.200,8416.000,0.300,1261.000,0.500,986.000,1.000,375.000,5.000,0
"04/02/08","09:13:31",79144.000,"cc",28301.674,6.00,6,0.100,70271.000,0.200,6069.000,0.300,1237.000,0.500,1160.000,1.000,407.000,5.000,0
"04/02/08","09:13:37",66528.000,"cc",28299.432,6.00,6,0.100,59133.000,0.200,4888.000,0.300,1059.000,0.500,1056.000,1.000,392.000,5.000,0
"04/02/08","09:13:43",69726.000,"cc",28316.217,6.00,6,0.100,62276.000,0.200,5143.000,0.300,1023.000,0.500,933.000,1.000,351.000,5.000,0
"04/02/08","09:13:49",79168.000,"cc",28233.785,6.00,6,0.100,71532.000,0.200,5700.000,0.300,873.000,0.500,792.000,1.000,271.000,5.000,0
"04/02/08","09:13:55",121072.000,"cc",28359.578,6.00,6,0.100,109453.000,0.200,9473.000,0.300,1072.000,0.500,769.000,1.000,305.000,5.000,0
"04/02/08","09:14:01",188960.000,"cc",28345.691,6.00,6,0.100,169602.000,0.200,16079.000,0.300,1685.000,0.500,1168.000,1.000,426.000,5.000,0
"04/02/08","09:14:07",191269.000,"cc",28307.809,6.00,6,0.100,171267.000,0.200,16483.000,0.300,1796.000,0.500,1253.000,1.000,470.000,5.000,0
"04/02/08","09:14:13",176504.000,"cc",28398.754,6.00,6,0.100,158057.000,0.200,15137.000,0.300,1635.000,0.500,1210.000,1.000,465.000,5.000,0
"04/02/08","09:14:19",158792.000,"cc",28264.813,6.00,6,0.100,142214.000,0.200,13594.000,0.300,1520.000,0.500,1053.000,1.000,411.000,5.000,0
"04/02/08","09:14:25",116804.000,"cc",28332.885,6.00,6,0.100,103776.000,0.200,9798.000,0.300,1546.000,0.500,1234.000,1.000,450.000,5.000,0
"04/02/08","09:14:31",141702.000,"cc",28292.826,6.00,6,0.100,127171.000,0.200,11547.000,0.300,1398.000,0.500,1136.000,1.000,450.000,5.000,0
"04/02/08","09:14:37",125590.000,"cc",28334.990,6.00,6,0.100,113852.000,0.200,9671.000,0.300,994.000,0.500,797.000,1.000,276.000,5.000,0
"04/02/08","09:14:43",197711.000,"cc",28301.727,6.00,6,0.100,178823.000,0.200,16403.000,0.300,1273.000,0.500,862.000,1.000,350.000,5.000,0
"04/02/08","09:14:49",178283.000,"cc",28340.104,6.00,6,0.100,161512.000,0.200,14290.000,0.300,1221.000,0.500,898.000,1.000,362.000,5.000,0
"04/02/08","09:14:55",169456.000,"cc",28279.334,6.00,6,0.100,153361.000,0.200,13571.000,0.300,1264.000,0.500,926.000,1.000,334.000,5.000,0
"04/02/08","09:15:01",146710.000,"cc",28326.260,6.00,6,0.100,133012.000,0.200,11204.000,0.300,1212.000,0.500,890.000,1.000,392.000,5.000,0
"04/02/08","09:15:07",119435.000,"cc",28358.647,6.00,6,0.100,108233.000,0.200,8889.000,0.300,1059.000,0.500,897.000,1.000,357.000,5.000,0
"04/02/08","09:15:13",121264.000,"cc",28347.791,6.00,6,0.100,109875.000,0.200,9165.000,0.300,1052.000,0.500,877.000,1.000,295.000,5.000,0
"04/02/08","09:15:19",90540.000,"cc",28368.799,6.00,6,0.100,81954.000,0.200,6552.000,0.300,913.000,0.500,811.000,1.000,310.000,5.000,0
"04/02/08","09:15:25",115772.000,"cc",28248.190,6.00,6,0.100,104765.000,0.200,8712.000,0.300,1072.000,0.500,865.000,1.000,358.000,5.000,0
"04/02/08","09:15:31",78665.000,"cc",28289.285,6.00,6,0.100,70636.000,0.200,5534.000,0.300,1027.000,0.500,1047.000,1.000,409.000,5.000,12.000
"04/02/08","09:15:37",141533.000,"cc",28325.076,6.00,6,0.100,128111.000,0.200,10869.000,0.300,1236.000,0.500,935.000,1.000,382.000,5.000,0
"04/02/08","09:15:43",82100.000,"cc",28357.084,6.00,6,0.100,73629.000,0.200,5926.000,0.300,1131.000,0.500,1019.000,1.000,395.000,5.000,0
"04/02/08","09:15:49",87600.000,"cc",28298.318,6.00,6,0.100,78484.000,0.200,6492.000,0.300,1201.000,0.500,1044.000,1.000,379.000,5.000,0
"04/02/08","09:15:55",95561.000,"cc",28323.568,6.00,6,0.100,85485.000,0.200,7278.000,0.300,1272.000,0.500,1085.000,1.000,441.000,5.000,0
"04/02/08","09:16:01",57923.000,"cc",28285.943,6.00,6,0.100,51538.000,0.200,4145.000,0.300,951.000,0.500,913.000,1.000,376.000,5.000,0
"04/02/08","09:16:07",61619.000,"cc",28327.635,6.00,6,0.100,54595.000,0.200,4462.000,0.300,1107.000,0.500,1018.000,1.000,437.000,5.000,0
"04/02/08","09:16:13",84694.000,"cc",28316.504,6.00,6,0.100,75209.000,0.200,6651.000,0.300,1254.000,0.500,1144.000,1.000,436.000,5.000,0
"04/02/08","09:16:19",68507.000,"cc",28274.879,6.00,6,0.100,60530.000,0.200,5217.000,0.300,1193.000,0.500,1141.000,1.000,426.000,5.000,0
"04/02/08","09:16:25",50985.000,"cc",28323.584,6.00,6,0.100,44352.000,0.200,3827.000,0.300,1194.000,0.500,1162.000,1.000,450.000,5.000,0